TimeMST,TemperatureF,Dew PointF,Humidity,Sea Level PressureIn,VisibilityMPH,Wind Direction,Wind SpeedMPH,Gust SpeedMPH,PrecipitationIn,Events,Conditions,WindDirDegrees,DateUTC
12:09 AM,41.0,26.6,57,29.70,10.0,Calm,Calm,-,N/A,,Clear,0,2013-03-04 07:09:00
12:36 AM,37.4,28.4,70,29.70,10.0,SW,4.6,-,N/A,,Clear,220,2013-03-04 07:36:00
12:55 AM,39.2,28.4,65,29.70,10.0,SSW,3.5,-,N/A,,Clear,210,2013-03-04 07:55:00
1:15 AM,39.2,26.6,61,29.70,10.0,Calm,Calm,-,N/A,,Clear,0,2013-03-04 08:15:00
1:34 AM,42.8,26.6,53,29.70,10.0,West,5.8,-,N/A,,Clear,260,2013-03-04 08:34:00
1:49 AM,42.8,26.6,53,29.70,10.0,SW,6.9,-,N/A,,Clear,230,2013-03-04 08:49:00
2:09 AM,41.0,28.4,61,29.70,10.0,SW,4.6,-,N/A,,Clear,220,2013-03-04 09:09:00
2:36 AM,32.0,28.4,87,29.70,10.0,South,5.8,-,N/A,,Clear,170,2013-03-04 09:36:00
2:56 AM,33.8,28.4,81,29.70,10.0,Calm,Calm,-,N/A,,Clear,0,2013-03-04 09:56:00
3:16 AM,35.6,28.4,75,29.70,10.0,ESE,3.5,-,N/A,,Clear,110,2013-03-04 10:16:00
3:35 AM,33.8,28.4,81,29.71,10.0,East,6.9,-,N/A,,Scattered Clouds,100,2013-03-04 10:35:00
3:51 AM,39.2,28.4,65,29.72,10.0,NE,11.5,18.4,N/A,,Mostly Cloudy,50,2013-03-04 10:51:00
4:15 AM,33.8,30.2,87,29.74,10.0,NE,18.4,-,N/A,,Clear,40,2013-03-04 11:15:00
4:30 AM,32.0,30.2,93,29.75,10.0,NE,19.6,-,N/A,,Clear,40,2013-03-04 11:30:00
4:56 AM,32.0,30.2,93,29.77,10.0,ENE,15.0,-,N/A,,Clear,60,2013-03-04 11:56:00
5:16 AM,30.2,30.2,100,29.78,10.0,ENE,12.7,-,N/A,,Mostly Cloudy,60,2013-03-04 12:16:00
5:30 AM,32.0,30.2,93,29.79,10.0,ENE,10.4,-,N/A,,Overcast,60,2013-03-04 12:30:00
5:50 AM,32.0,30.2,93,29.81,10.0,NNE,8.1,-,N/A,,Overcast,30,2013-03-04 12:50:00
6:10 AM,32.0,30.2,93,29.81,10.0,NE,8.1,-,N/A,,Overcast,40,2013-03-04 13:10:00
6:36 AM,30.2,28.4,93,29.83,10.0,NE,4.6,-,N/A,,Overcast,50,2013-03-04 13:36:00
6:56 AM,32.0,30.2,93,29.83,10.0,East,6.9,-,N/A,,Overcast,90,2013-03-04 13:56:00
6:57 AM,32.0,30.2,93,29.83,10.0,East,5.8,-,N/A,,Overcast,90,2013-03-04 13:57:00
7:50 AM,30.2,24.8,80,29.86,10.0,Calm,Calm,-,N/A,,Overcast,0,2013-03-04 14:50:00
8:47 AM,32.0,23.0,69,29.85,10.0,NNE,5.8,-,N/A,,Mostly Cloudy,20,2013-03-04 15:47:00
9:47 AM,32.0,21.2,64,29.84,10.0,NE,11.5,-,N/A,,Mostly Cloudy,40,2013-03-04 16:47:00
12:50 PM,30.2,26.6,86,29.83,10.0,North,20.7,-,N/A,,Overcast,10,2013-03-04 19:50:00
1:48 PM,28.4,26.6,93,29.94,0.2,NNE,17.3,-,N/A,Snow,Heavy Snow,20,2013-03-04 20:48:00
2:48 PM,28.4,24.8,86,29.96,3.0,North,15.0,-,N/A,Snow,Light Snow,10,2013-03-04 21:48:00
3:05 PM,28.4,21.2,74,29.98,10.0,North,16.1,-,N/A,,Overcast,10,2013-03-04 22:05:00
3:47 PM,30.2,21.2,69,30.00,20.0,North,9.2,-,N/A,,Overcast,350,2013-03-04 22:47:00
4:48 PM,30.2,19.4,64,30.03,30.0,North,18.4,-,N/A,,Mostly Cloudy,360,2013-03-04 23:48:00
5:55 PM,28.4,17.6,64,30.06,30.0,North,15.0,-,N/A,,Mostly Cloudy,360,2013-03-05 00:55:00
6:48 PM,24.8,12.2,59,30.10,20.0,North,11.5,-,N/A,,Scattered Clouds,360,2013-03-05 01:48:00
7:48 PM,21.2,12.2,68,30.14,20.0,NE,9.2,-,N/A,,Scattered Clouds,40,2013-03-05 02:48:00
8:56 PM,23.0,12.2,63,30.16,10.0,Calm,Calm,-,N/A,,Clear,0,2013-03-05 03:56:00
9:15 PM,21.2,10.4,63,30.17,10.0,NE,4.6,-,N/A,,Clear,40,2013-03-05 04:15:00
9:32 PM,21.2,12.2,68,30.18,10.0,East,3.5,-,N/A,,Clear,90,2013-03-05 04:32:00
9:56 PM,21.2,12.2,68,30.19,10.0,ESE,3.5,-,N/A,,Clear,110,2013-03-05 04:56:00
10:16 PM,21.2,12.2,68,30.20,10.0,Calm,Calm,-,N/A,,Clear,0,2013-03-05 05:16:00
10:36 PM,17.6,10.4,73,30.20,10.0,Calm,Calm,-,N/A,,Clear,0,2013-03-05 05:36:00
10:56 PM,17.6,10.4,73,30.19,10.0,ESE,4.6,-,N/A,,Clear,120,2013-03-05 05:56:00
11:16 PM,14.0,8.6,79,30.19,10.0,South,3.5,-,N/A,,Clear,170,2013-03-05 06:16:00
11:35 PM,14.0,8.6,79,30.20,10.0,South,6.9,-,N/A,,Clear,190,2013-03-05 06:35:00
11:56 PM,15.8,8.6,73,30.21,10.0,South,5.8,-,N/A,,Clear,190,2013-03-05 06:56:00